Tracking 18987 objects as of 24-Feb-2018
HD Live streaming from Space Station
objects crossing your sky now

NOAA 16 DEB

Track NOAA 16 DEB now!
10-day predictions


NORAD ID: 42402
Int'l Code: 2000-055SW
Perigee: 800.5 km
Apogee: 856.7 km
Inclination: 98.9 °
Period: 101.3 minutes
Semi major axis: 7199 km
RCS: Unknown
Launch date: September 21, 2000
Source: United States (US)
Launch site: AIR FORCE WESTERN TEST RANGE (AFWTR)

Note: This is SATELLITE DEBRIS
aabbcc
Your satellite tracking list
Your tracking list is empty




NASA's NSSDC Master Catalog

Two Line Element Set (TLE):
1 42402U 00055SW  18055.11429069  .00000575  00000-0  28357-3 0  9998
2 42402  98.9345 147.0752 0039072 274.2864  85.3848 14.21155071103223
Source of the keplerian elements: AFSPC